Weather History for Easton, MD

Change the Weather History Date:

Thursday, January 16, 2014

  Actual Average Record
Temperature  
Mean Temperature 36 °F -  
Max Temperature 41 °F 40 °F 68 °F (1953)
Min Temperature 30 °F 22 °F 5 °F (1972)
Degree Days  
Heating Degree Days 30    
Moisture  
Dew Point 30 °F    
Average Humidity 81    
Maximum Humidity 100    
Minimum Humidity 49    
Precipitation  
Precipitation 0.00 in - - ()
Sea Level Pressure  
Sea Level Pressure 29.99 in    
Wind  
Wind Speed 7 mph (North)    
Max Wind Speed 14 mph    
Max Gust Speed 18 mph    
Visibility 10 miles    
Events Rain    
Averages and records for this station are not official NWS values.
T = Trace of Precipitation, MM = Missing Value Source: NWS Daily Summary

Daily Weather History Graph

Daily Weather History Graph

Search for Another Location

Airport:

Trip Planner

Search our weather history database for the weather conditions in past years. The results will help you decide how hot, cold, wet, or windy it might be!

Date:

Astronomy

Jan. 16, 2014 Rise Set
Actual Time 7:20 AM EST 5:07 PM EST
Civil Twilight 6:51 AM EST 5:36 PM EST
Nautical Twilight 6:18 AM EST 6:09 PM EST
Astronomical Twilight 5:47 AM EST 6:41 PM EST
Moon 5:56 PM EST (1/16) 7:13 AM EST (1/16)
Length of Visible Light 10h 45m
Length of Day
9h 47m
Full, 100% of the Moon is Illuminated
Jan 16
Full
Jan 24
Last Quarter
Jan 30
New
Feb 6
First Quarter
Feb 14
Full

Hourly Weather History & Observations

Time (EST) Temp. Windchill Dew Point Humidity Pressure Visibility Wind Dir Wind Speed Gust Speed Precip Events Conditions
12:18 AM 41.5 °F 35.4 °F 33.3 °F 72% 29.95 in 10.0 mi NNE 10.4 mph 18.4 mph N/A   Overcast
12:38 AM 41.0 °F 35.8 °F 34.0 °F 76% 29.97 in 10.0 mi North 8.1 mph - N/A   Overcast
12:58 AM 40.6 °F 36.0 °F 34.0 °F 77% 29.98 in 10.0 mi NNE 6.9 mph - N/A   Overcast
1:18 AM 39.9 °F 35.8 °F 32.9 °F 76% 29.99 in 10.0 mi North 5.8 mph 16.1 mph N/A   Mostly Cloudy
1:38 AM 38.8 °F 32.1 °F 34.5 °F 84% 29.99 in 10.0 mi North 10.4 mph - N/A Rain Light Rain
1:58 AM 37.8 °F 31.8 °F 35.2 °F 91% 30.00 in 10.0 mi North 8.1 mph - N/A   Drizzle
2:18 AM 36.9 °F 28.2 °F 34.9 °F 93% 30.00 in 10.0 mi North 13.8 mph 17.3 mph N/A Rain Rain
2:38 AM 36.1 °F 29.3 °F 36.1 °F 100% 30.00 in 7.0 mi NNE 9.2 mph - N/A Rain Light Rain
2:58 AM 36.0 °F 30.3 °F 36.0 °F 100% 29.99 in 10.0 mi NNE 6.9 mph - N/A   Light Drizzle
3:18 AM 35.8 °F 28.8 °F 35.8 °F 100% 29.99 in 10.0 mi North 9.2 mph - N/A   Overcast
3:38 AM 35.8 °F 31.9 °F 35.8 °F 100% 29.98 in 10.0 mi North 4.6 mph - N/A   Overcast
3:58 AM 35.6 °F 29.9 °F 35.6 °F 100% 29.97 in 10.0 mi NE 6.9 mph - N/A   Overcast
4:18 AM 35.8 °F 30.9 °F 35.8 °F 100% 29.97 in 10.0 mi NNE 5.8 mph - N/A   Overcast
4:38 AM 35.8 °F 30.1 °F 35.8 °F 100% 29.98 in 10.0 mi North 6.9 mph - N/A   Overcast
4:59 AM 35.8 °F 31.9 °F 35.8 °F 100% 29.98 in 10.0 mi NNE 4.6 mph - N/A   Overcast
5:19 AM 36.0 °F 31.1 °F 32.0 °F 86% 29.98 in 10.0 mi North 5.8 mph - N/A   Overcast
5:22 AM 36.0 °F 31.1 °F 32.0 °F 86% 29.98 in 10.0 mi North 5.8 mph - N/A   Overcast
5:50 AM 35.6 °F 30.7 °F 30.2 °F 81% 29.97 in 10.0 mi NNW 5.8 mph - N/A   Overcast
6:50 AM 35.6 °F 29.9 °F 30.2 °F 81% 29.98 in 10.0 mi NNW 6.9 mph - N/A   Overcast
7:50 AM 35.6 °F 29.9 °F 28.4 °F 75% 30.01 in 10.0 mi NNW 6.9 mph - N/A   Overcast
8:50 AM 37.4 °F 32.1 °F 26.6 °F 65% 30.05 in 10.0 mi NNW 6.9 mph - N/A   Overcast
9:50 AM 35.6 °F 29.2 °F 30.2 °F 81% 30.05 in 10.0 mi NNW 8.1 mph - N/A   Overcast
10:53 AM 35.6 °F 28.6 °F 30.2 °F 81% 30.04 in 10.0 mi NNW 9.2 mph - N/A   Overcast
11:53 AM 35.6 °F 28.6 °F 28.4 °F 75% 30.00 in 10.0 mi NW 9.2 mph - N/A   Overcast
12:53 PM 39.2 °F 33.0 °F 28.4 °F 65% 29.95 in 10.0 mi NNW 9.2 mph - N/A   Mostly Cloudy
1:53 PM 37.4 °F 30.8 °F 26.6 °F 65% 29.93 in 10.0 mi WNW 9.2 mph - N/A   Scattered Clouds
2:53 PM 39.2 °F 34.2 °F 24.8 °F 56% 29.93 in 10.0 mi NNW 6.9 mph - N/A   Scattered Clouds
3:53 PM 39.2 °F - 21.2 °F 49% 29.96 in 10.0 mi Calm Calm - N/A   Clear
4:53 PM 37.4 °F - 21.2 °F 52% 29.97 in 10.0 mi Calm Calm - N/A   Clear
5:50 PM 35.6 °F - 24.8 °F 65% 29.98 in 10.0 mi Calm Calm - N/A   Clear
6:50 PM 32.0 °F - 24.8 °F 75% 30.00 in 10.0 mi Calm Calm - N/A   Clear
7:50 PM 30.2 °F - 24.8 °F 80% 30.02 in 10.0 mi Calm Calm - N/A   Clear
8:50 PM 30.2 °F - 24.8 °F 80% 30.03 in 10.0 mi Calm Calm - N/A   Clear
9:40 PM 30.9 °F - 24.4 °F 77% 30.03 in 10.0 mi Calm Calm - N/A   Clear
10:01 PM 31.6 °F - 24.8 °F 76% 30.03 in 10.0 mi Calm Calm - N/A   Clear
10:21 PM 31.3 °F 27.9 °F 25.0 °F 77% 30.03 in 10.0 mi South 3.5 mph - N/A   Clear
10:41 PM 31.6 °F - 25.5 °F 78% 30.04 in 10.0 mi Calm Calm - N/A   Clear
11:01 PM 31.1 °F - 26.2 °F 82% 30.03 in 10.0 mi Calm Calm - N/A   Clear
11:21 PM 30.7 °F 27.3 °F 26.2 °F 83% 30.03 in 10.0 mi South 3.5 mph - N/A   Clear
11:41 PM 31.1 °F - 26.6 °F 83% 30.02 in 10.0 mi Calm Calm - N/A   Clear